Tracking 29493 objects as of 8-Sep-2024
HD Live streaming from Space Station
objects crossing your sky now

FENGYUN 1C DEB

Track FENGYUN 1C DEB now!
10-day predictions


NORAD ID: 47100
Int'l Code: 1999-025FBY
Perigee: 694.2 km
Apogee: 851.3 km
Inclination: 99.0 °
Period: 100.1 minutes
Semi major axis: 7143 km
RCS: Unknown
Launch date: May 10, 1999
Source: People's Republic of China (PRC)
Launch site: Taiyaun Space Center, China (TSC)

Note: This is SATELLITE DEBRIS
Your satellite tracking list
Your tracking list is empty




NASA's NSSDC Master Catalog

Two Line Element Set (TLE):
1 47100U 99025FBY 24251.91358724  .00023342  00000-0  72104-2 0  9990
2 47100  98.9985  36.7283 0109896 286.4079  72.5050 14.37849310201080
Source of the keplerian elements: AFSPC